Location: Chiroubles
(46.1812°N, 4.6660°E)
Time: 04:22:07
(UTC+00:00)

Tiros 1 - Pass Details

Date: 30 November 2020
Orbit: 630 x 663 km, 48.4° (Epoch: 16 January)

Event Time Altitude Azimuth Distance (km) Brightness Sun altitude
Rises 19:00:01 0° 288° (WNW) 2,989 11.6 -30.9°
Reaches altitude 10° 19:02:23 10° 287° (WNW) 2,072 10.6 -31.3°
Enters shadow 19:05:10 35° 282° (WNW) 1,059 8.6 -31.8°
